Hopkins, SC

4:59 PM EDT on September 28, 2016 (GMT -0400)
McEntire Angs

Weather History for KMMT - February, 2013

Change the Weather History Date:

Wednesday, February 27, 2013

  Actual Average Record
Temperature  
Mean Temperature 51 °F -  
Max Temperature 62 °F 60 °F 84 °F (1997)
Min Temperature 40 °F 41 °F 27 °F (2014)
Degree Days  
Heating Degree Days 14    
Growing Degree Days 1 (Base 50)    
Moisture  
Dew Point 38 °F    
Average Humidity 62    
Maximum Humidity 99    
Minimum Humidity 39    
Precipitation  
Precipitation 0.00 in - - ()
Sea Level Pressure  
Sea Level Pressure 29.81 in    
Wind  
Wind Speed 10 mph (WSW)    
Max Wind Speed 15 mph    
Max Gust Speed 22 mph    
Visibility 9 miles    
Events      
Averages and records for this station are not official NWS values.
T = Trace of Precipitation, MM = Missing Value Source: NWS Daily Summary

Daily Weather History Graph

Daily Weather History Graph

Search for Another Location

Airport or City:

Trip Planner

Search our weather history database for the weather conditions in past years. The results will help you decide how hot, cold, wet, or windy it might be!

Date:

Astronomy

Feb. 27, 2013 Rise Set
Actual Time 6:53 AM EST 6:18 PM EST
Civil Twilight 6:28 AM EST 6:43 PM EST
Nautical Twilight 5:59 AM EST 7:12 PM EST
Astronomical Twilight 5:31 AM EST 7:41 PM EST
Moon 8:28 PM EST (2/27) 7:36 AM EST (2/27)
Length of Visible Light 12h 14m
Length of Day
11h 24m
Waning Gibbous, 96% of the Moon is Illuminated
Feb 27
Waning Gibbous
Mar 4
Last Quarter
Mar 11
New
Mar 19
First Quarter
Mar 27
Full

Hourly Weather History & Observations

Time (EST) Temp. Windchill Dew Point Humidity Pressure Visibility Wind Dir Wind Speed Gust Speed Precip Events Conditions
12:58 AM 44.6 °F 41.4 °F 44.2 °F 99% 29.76 in 10.0 mi WSW 5.8 mph - N/A   Clear
1:58 AM 45.9 °F 40.4 °F 41.4 °F 84% 29.77 in 10.0 mi WSW 11.5 mph - N/A   Clear
2:58 AM 44.6 °F 38.8 °F 39.7 °F 83% 29.77 in 10.0 mi WSW 11.5 mph - N/A   Clear
3:58 AM 43.5 °F 38.3 °F 37.8 °F 80% 29.77 in 10.0 mi WSW 9.2 mph - N/A   Clear
4:58 AM 42.6 °F 37.8 °F 37.6 °F 82% 29.79 in 10.0 mi SW 8.1 mph - N/A   Scattered Clouds
5:58 AM 42.3 °F 36.3 °F 36.1 °F 79% 29.81 in 7.0 mi WSW 10.4 mph - N/A   Partly Cloudy
6:58 AM 40.8 °F 35.6 °F 35.4 °F 81% 29.82 in 7.0 mi SW 8.1 mph - N/A   Mostly Cloudy
7:58 AM 42.6 °F 35.9 °F 36.1 °F 78% 29.86 in 7.0 mi SW 12.7 mph - N/A   Mostly Cloudy
8:58 AM 45.1 °F 38.4 °F 35.8 °F 70% 29.87 in 7.0 mi West 15.0 mph 21.9 mph N/A   Scattered Clouds
9:58 AM 48.9 °F - 35.1 °F 59% 29.87 in 7.0 mi West 15.0 mph 21.9 mph 0.00 in   Scattered Clouds
10:58 AM 50.9 °F - 35.4 °F 55% 29.88 in 7.0 mi West 11.5 mph 18.4 mph N/A   Mostly Cloudy
11:58 AM 54.1 °F - 36.5 °F 51% 29.86 in 10.0 mi WSW 9.2 mph - N/A   Mostly Cloudy
12:55 PM 57.2 °F - 37.4 °F 48% 29.84 in 10.0 mi West 12.7 mph 18.4 mph N/A   Mostly Cloudy
12:58 PM 57.0 °F - 37.2 °F 48% 29.84 in 10.0 mi SW 12.7 mph 18.4 mph N/A   Mostly Cloudy
1:54 PM 59.0 °F - 37.4 °F 45% 29.82 in 10.0 mi WSW 12.7 mph 17.3 mph N/A   Clear
1:55 PM 58.8 °F - 37.6 °F 45% 29.82 in 10.0 mi WSW 12.7 mph 17.3 mph N/A   Scattered Clouds
2:55 PM 60.6 °F - 37.2 °F 42% 29.80 in 10.0 mi SW 10.4 mph - N/A   Mostly Cloudy
3:55 PM 62.6 °F - 37.4 °F 39% 29.79 in 10.0 mi WSW 12.7 mph 18.4 mph N/A   Scattered Clouds
4:55 PM 60.8 °F - 37.4 °F 42% 29.78 in 10.0 mi WSW 11.5 mph - N/A   Scattered Clouds
5:55 PM 57.0 °F - 37.8 °F 49% 29.79 in 10.0 mi SW 8.1 mph - N/A   Scattered Clouds
6:55 PM 55.4 °F - 37.4 °F 51% 29.81 in 10.0 mi SW 4.6 mph - N/A   Scattered Clouds
7:55 PM 53.6 °F - 39.2 °F 58% 29.81 in 10.0 mi SSW 5.8 mph - N/A   Scattered Clouds
8:55 PM 51.1 °F - 38.5 °F 62% 29.81 in 10.0 mi SW 6.9 mph - N/A   Scattered Clouds
9:55 PM 50.0 °F - 37.4 °F 62% 29.81 in 10.0 mi SW 6.9 mph - N/A   Partly Cloudy
10:55 PM 48.9 °F - 38.1 °F 66% 29.82 in 10.0 mi SW 5.8 mph - N/A   Clear